Rochester, MN

3:10 AM CST on January 19, 2017 (GMT -0600)
Rochester/St. Mary\'s Hospita

Weather History for K9MN - June, 2014

Change the Weather History Date:

Tuesday, June 10, 2014

  Actual Average (KRST) Record (KRST)
Temperature  
Mean Temperature 66 °F -  
Max Temperature 76 °F 77 °F 96 °F (1911)
Min Temperature 58 °F 54 °F 36 °F (1972)
Cooling Degree Days 2    
Growing Degree Days 16 (Base 50)    
Moisture  
Dew Point 48 °F    
Average Humidity 53    
Maximum Humidity 77    
Minimum Humidity 31    
Precipitation  
Precipitation 0.00 in - - ()
Sea Level Pressure  
Sea Level Pressure 29.94 in    
Wind  
Wind Speed 3 mph (East)    
Max Wind Speed 10 mph    
Max Gust Speed -    
Visibility 10 miles    
Events      
Averages and records for this station are not official NWS values.
T = Trace of Precipitation, MM = Missing Value Source: NWS Daily Summary

Daily Weather History Graph

Daily Weather History Graph

Search for Another Location

Airport or City:

Trip Planner

Search our weather history database for the weather conditions in past years. The results will help you decide how hot, cold, wet, or windy it might be!

Date:

Astronomy

Jun. 10, 2014 Rise Set
Actual Time 5:26 AM CDT 8:52 PM CDT
Civil Twilight 4:50 AM CDT 9:28 PM CDT
Nautical Twilight 4:03 AM CDT 10:15 PM CDT
Astronomical Twilight 3:04 AM CDT 11:15 PM CDT
Moon 6:13 PM CDT (6/10) 3:38 AM CDT (6/10)
Length of Visible Light 16h 37m
Length of Day
15h 25m
Waxing Gibbous, 92% of the Moon is Illuminated
Jun 10
Waxing Gibbous
Jun 12
Full
Jun 19
Last Quarter
Jun 27
New
Jul 5
First Quarter

Hourly Weather History & Observations

Time (CDT) Temp. Dew Point Humidity Pressure Visibility Wind Dir Wind Speed Gust Speed Precip Events Conditions
12:12 AM 63.0 °F 50.7 °F 64% 29.98 in 10.0 mi North 3.5 mph - N/A   Clear
12:32 AM 61.9 °F 51.3 °F 68% 29.98 in 10.0 mi Calm Calm - N/A   Clear
12:52 AM 61.2 °F 51.6 °F 71% 29.97 in 10.0 mi Calm Calm - N/A   Clear
1:12 AM 61.0 °F 51.1 °F 70% 29.97 in 10.0 mi Calm Calm - N/A   Clear
1:32 AM 61.5 °F 50.4 °F 67% 29.96 in 10.0 mi ENE 3.5 mph - N/A   Clear
1:52 AM 61.9 °F 50.2 °F 65% 29.96 in 10.0 mi Calm Calm - N/A   Clear
2:12 AM 59.4 °F 52.2 °F 77% 29.96 in 10.0 mi Calm Calm - N/A   Clear
2:32 AM 60.1 °F 50.7 °F 71% 29.95 in 10.0 mi Calm Calm - N/A   Clear
2:52 AM 59.7 °F 51.1 °F 73% 29.95 in 10.0 mi Calm Calm - N/A   Clear
3:12 AM 60.4 °F 49.8 °F 68% 29.95 in 10.0 mi Calm Calm - N/A   Clear
3:32 AM 60.3 °F 49.3 °F 67% 29.95 in 10.0 mi Calm Calm - N/A   Clear
3:52 AM 59.2 °F 50.5 °F 73% 29.95 in 10.0 mi Calm Calm - N/A   Clear
4:12 AM 58.6 °F 50.4 °F 74% 29.95 in 10.0 mi Calm Calm - N/A   Clear
4:32 AM 59.4 °F 49.8 °F 71% 29.95 in 10.0 mi Calm Calm - N/A   Clear
4:52 AM 59.0 °F 49.1 °F 70% 29.95 in 10.0 mi Calm Calm - N/A   Clear
5:12 AM 59.5 °F 48.9 °F 68% 29.95 in 10.0 mi East 3.5 mph - N/A   Clear
5:32 AM 58.6 °F 48.9 °F 70% 29.95 in 10.0 mi East 5.8 mph - N/A   Clear
5:52 AM 59.0 °F 49.1 °F 70% 29.95 in 10.0 mi East 3.5 mph - N/A   Clear
6:12 AM 59.9 °F 48.9 °F 67% 29.95 in 10.0 mi Calm Calm - N/A   Clear
6:32 AM 59.7 °F 49.3 °F 68% 29.96 in 10.0 mi Calm Calm - N/A   Clear
6:52 AM 60.3 °F 49.6 °F 68% 29.96 in 10.0 mi ENE 3.5 mph - N/A   Mostly Cloudy
7:12 AM 60.8 °F 50.0 °F 68% 29.96 in 10.0 mi Calm Calm - N/A   Mostly Cloudy
7:32 AM 61.3 °F 50.5 °F 68% 29.97 in 10.0 mi Calm Calm - N/A   Overcast
7:52 AM 61.7 °F 50.7 °F 67% 29.97 in 10.0 mi Calm Calm - N/A   Overcast
8:12 AM 61.9 °F 51.4 °F 69% 29.97 in 10.0 mi ENE 4.6 mph - N/A   Mostly Cloudy
8:52 AM 62.6 °F 51.1 °F 66% 29.97 in 10.0 mi ESE 10.4 mph - N/A   Mostly Cloudy
9:12 AM 62.4 °F 51.6 °F 68% 29.98 in 10.0 mi East 5.8 mph - N/A   Overcast
9:32 AM 62.8 °F 51.6 °F 67% 29.98 in 10.0 mi East 5.8 mph - N/A   Overcast
10:12 AM 65.1 °F 50.4 °F 59% 29.97 in 10.0 mi East 9.2 mph - N/A   Scattered Clouds
10:32 AM 66.7 °F 49.1 °F 53% 29.97 in 10.0 mi ESE 8.1 mph - N/A   Scattered Clouds
10:52 AM 66.6 °F 46.8 °F 49% 29.97 in 10.0 mi ESE 8.1 mph - N/A   Clear
11:12 AM 67.3 °F 45.3 °F 45% 29.97 in 10.0 mi East 9.2 mph - N/A   Clear
11:32 AM 68.2 °F 45.5 °F 44% 29.96 in 10.0 mi ENE 6.9 mph - N/A   Clear
12:13 PM 69.6 °F 45.9 °F 43% 29.95 in 10.0 mi ENE 8.1 mph - N/A   Scattered Clouds
12:32 PM 70.3 °F 46.8 °F 43% 29.95 in 10.0 mi East 10.4 mph - N/A   Scattered Clouds
12:52 PM 71.4 °F 47.1 °F 42% 29.95 in 10.0 mi East 8.1 mph - N/A   Scattered Clouds
1:12 PM 71.4 °F 47.7 °F 43% 29.95 in 10.0 mi ENE 4.6 mph - N/A   Mostly Cloudy
1:32 PM 72.5 °F 48.2 °F 42% 29.94 in 10.0 mi NE 3.5 mph - N/A   Overcast
2:12 PM 73.4 °F 46.2 °F 38% 29.93 in 10.0 mi NE 4.6 mph - N/A   Scattered Clouds
2:32 PM 73.8 °F 45.3 °F 36% 29.93 in 10.0 mi ENE 8.1 mph - N/A   Scattered Clouds
2:52 PM 74.3 °F 43.3 °F 33% 29.93 in 10.0 mi NE 6.9 mph - N/A   Scattered Clouds
3:12 PM 74.7 °F 42.4 °F 31% 29.93 in 10.0 mi NE 8.1 mph - N/A   Scattered Clouds
3:32 PM 74.3 °F 42.3 °F 32% 29.93 in 10.0 mi East 4.6 mph - N/A   Mostly Cloudy
4:12 PM 75.2 °F 43.0 °F 32% 29.92 in 10.0 mi East 10.4 mph - N/A   Clear
4:32 PM 75.6 °F 43.5 °F 32% 29.91 in 10.0 mi East 4.6 mph - N/A   Clear
4:52 PM 75.4 °F 43.2 °F 32% 29.91 in 10.0 mi ENE 8.1 mph - N/A   Clear
5:12 PM 75.0 °F 43.9 °F 33% 29.91 in 10.0 mi ESE 9.2 mph - N/A   Clear
5:32 PM 74.7 °F 44.4 °F 34% 29.91 in 10.0 mi East 5.8 mph - N/A   Clear
5:52 PM 73.6 °F 44.1 °F 35% 29.91 in 10.0 mi ESE 8.1 mph - N/A   Clear
6:12 PM 73.6 °F 44.2 °F 35% 29.90 in 10.0 mi ESE 5.8 mph - N/A   Clear
6:32 PM 73.6 °F 44.2 °F 35% 29.90 in 10.0 mi East 5.8 mph - N/A   Clear
6:52 PM 73.4 °F 44.4 °F 35% 29.90 in 10.0 mi ESE 5.8 mph - N/A   Clear
7:12 PM 73.4 °F 44.8 °F 36% 29.90 in 10.0 mi ESE 5.8 mph - N/A   Clear
7:32 PM 73.4 °F 45.9 °F 37% 29.89 in 10.0 mi East 6.9 mph - N/A   Clear
7:51 PM 73.2 °F 45.9 °F 38% 29.90 in 10.0 mi Calm Calm - N/A   Clear
8:12 PM 72.9 °F 45.5 °F 38% 29.90 in 10.0 mi ENE 3.5 mph - N/A   Clear
8:32 PM 72.0 °F 45.9 °F 39% 29.89 in 10.0 mi Calm Calm - N/A   Clear
8:52 PM 71.2 °F 46.2 °F 41% 29.89 in 10.0 mi Calm Calm - N/A   Clear
9:12 PM 70.9 °F 46.8 °F 42% 29.89 in 10.0 mi Calm Calm - N/A   Clear
9:32 PM 70.0 °F 48.0 °F 46% 29.89 in 10.0 mi East 3.5 mph - N/A   Clear
10:12 PM 68.4 °F 48.6 °F 49% 29.90 in 10.0 mi East 3.5 mph - N/A   Clear
10:32 PM 67.5 °F 49.1 °F 52% 29.89 in 10.0 mi Calm Calm - N/A   Clear
10:52 PM 66.7 °F 48.4 °F 52% 29.89 in 10.0 mi East 6.9 mph - N/A   Clear
11:12 PM 65.3 °F 49.1 °F 56% 29.88 in 10.0 mi East 5.8 mph - N/A   Clear
11:32 PM 64.9 °F 49.5 °F 57% 29.88 in 10.0 mi ESE 3.5 mph - N/A   Clear
11:52 PM 64.2 °F 50.2 °F 60% 29.88 in 10.0 mi East 4.6 mph - N/A   Clear